Weather in Dikson

Russia / Krasnoyarsk Krai     73°30′26″N   80°31′44″E
temp.,
°C
wind,
m/s
gust,
m/s
humid.,
%
clouds,
%
prec.,
mm/h
press.,
hPa
HPBL,
m
22 january, sat
sat2201:00−9sw5795100 0.7 1002232
04:00−10sw579591 0.4 1004165
07:00−10sw4596100 0.7 1006104
10:00−10ssw3496100 0.2 100778
13:00−10ssw3596100 0.3 100879
16:00−10s3496100 0.2 100977
19:00−9s229683 0.6 101023
22:00−11se1196100 0.3 101110
23 january, sun
sun2301:00−13ne2297100 0.4 101334
04:00−18nne4310081 0.1 101531
07:00−22nne3310097 0.1 101828
10:00−25ne2210098 0.0 102013
13:00−25nne1110093 0.0 10219
16:00−26ssw33100100 0.0 102213
19:00−26s46100100 0.0 102356
22:00−25s610100100 0.0 1023108
24 january, mon
mon2401:00−24s712100100 0.1 1022142
04:00−21s9159899 0.1 1019204
07:00−19s111796100 0.1 1017277
10:00−16s11189398 0.1 1014390
13:00−14ssw111693100 0.4 1012496
16:00−14ssw111792100 0.2 1010460
19:00−13s132093100 0.3 1008427
22:00−10ssw142292100 0.1 1004577
25 january, tue
tue2501:00−7ssw142193100 1.1 1001747
04:00−7sw132094100 1.5 999749
07:00−7sw121994100 3.4 999674
10:00−7sw111894100 1.7 999645
13:00−7sw121893100 2.8 998607
16:00−7sw122093100 0.5 998569
19:00−7sw142192100 1.1 997615
22:00−6sw132194100 1.6 996729
26 january, wed
wed2601:00−5sw142194100 3.3 996772
04:00−6sw142194100 1.6 996772
07:00−7sw121993100 2.4 998639
10:00−7sw111691100 0.3 1000706
13:00−7sw101591100 0.4 1002511
16:00−8sw101593100 0.1 1003415
19:00−9sw101693100 0.6 1004468
22:00−9sw91493100 0.3 1004431